Location: Middlebury
(44.0153°N, 73.1678°W)
Time: 08:08:57
(UTC-04:00)

QB50P2 - Visible Passes

Search period start: 18 June 2024 00:00
Search period end: 28 June 2024 00:00
Orbit: 564 x 578 km, 98.0° (Epoch: 17 June)

Date Brightness Start Highest point End Pass type
(mag) Time Alt. Az. Time Alt. Az. Time Alt. Az.
18 Jun ? 02:39:52 10° NE 02:42:36 17° E 02:45:19 10° SE visible
18 Jun ? 04:14:06 10° N 04:17:54 39° WNW 04:21:39 10° SW visible
19 Jun ? 02:42:06 10° NE 02:44:56 18° E 02:47:45 10° SE visible
19 Jun ? 04:16:27 10° N 04:20:12 37° WNW 04:23:55 10° SW visible
20 Jun ? 02:44:18 10° NE 02:47:15 19° E 02:50:11 10° SE visible
20 Jun ? 04:18:47 10° N 04:22:29 35° WNW 04:26:10 10° SW visible
21 Jun ? 02:46:31 10° NE 02:49:34 20° E 02:52:35 10° SE visible
21 Jun ? 04:21:06 10° N 04:24:46 34° WNW 04:28:24 10° SW visible
22 Jun ? 02:48:43 10° NE 02:51:51 21° E 02:54:54 10° SE visible
22 Jun ? 04:23:25 10° N 04:27:01 32° WNW 04:30:37 10° SW visible
23 Jun ? 02:50:56 10° NE 02:54:08 22° E 02:57:11 11° SE visible
23 Jun ? 04:25:43 10° N 04:29:17 30° WNW 04:32:49 10° SW visible
24 Jun ? 02:53:08 10° NE 02:56:25 24° E 02:59:27 11° SSE visible
24 Jun ? 04:28:01 10° N 04:31:32 29° WNW 04:35:01 10° SW visible
25 Jun ? 02:55:18 10° NE 02:58:40 25° E 03:01:43 11° SSE visible
25 Jun ? 04:30:18 10° N 04:33:45 28° WNW 04:37:11 10° SW visible
26 Jun ? 02:57:29 10° NE 03:00:55 26° E 03:03:58 12° SSE visible
26 Jun ? 04:32:34 10° N 04:35:58 26° WNW 04:39:22 10° SW visible
27 Jun ? 02:59:40 10° NE 03:03:09 27° E 03:06:12 12° SSE visible
27 Jun ? 04:34:50 10° NNW 04:38:11 25° WNW 04:41:30 10° WSW visible
